GFSNGP_250_rhum_291.txt.gz
RH
8 7 7 6 5 5 5 5 5 5 5 5 5 5 6 7 9 10 9 8 8 8 8 10 11 12 14 15 15 16 17 17 19 21 41 100 100 64 36 33 32 30 26 25
7 7 7 7 6 6 5 5 5 5 6 5 5 6 6 7 10 11 10 9 9 9 9 9 12 14 15 17 20 20 18 18 20 22 25 88 100 100 52 38 37 33 30 28
7 7 7 7 6 5 6 5 5 5 6 6 6 7 7 8 10 12 12 10 10 9 9 9 11 15 19 20 21 21 21 20 21 24 24 58 100 100 88 50 42 39 36 33
7 7 7 7 6 6 6 6 6 6 6 6 7 8 8 9 10 14 14 12 12 12 11 10 11 14 21 23 24 26 24 22 23 25 24 33 100 100 100 83 55 48 43 39
7 7 7 7 8 8 8 8 7 7 7 6 7 9 10 9 11 16 15 12 12 14 11 11 14 15 18 24 26 27 26 25 24 27 25 24 71 100 100 100 84 58 53 51
8 8 9 8 10 10 10 9 9 9 10 8 8 9 10 10 12 16 17 15 14 15 16 15 12 18 22 28 30 30 27 27 24 27 29 26 33 95 100 100 100 81 62 58
10 9 10 10 10 10 10 10 10 10 11 12 9 9 11 11 11 16 18 16 13 16 18 17 20 18 22 29 33 29 32 32 28 27 29 29 27 72 100 100 100 100 86 69
11 11 12 11 11 12 12 10 11 11 12 14 11 10 11 13 12 12 17 17 14 16 18 16 17 22 22 26 33 32 34 36 36 28 30 31 29 44 95 100 100 100 99 68
12 12 12 12 13 12 13 12 11 11 12 14 14 12 11 12 13 12 15 18 16 15 20 18 16 17 24 28 30 35 37 37 35 30 28 32 32 32 71 100 100 100 100 100
12 12 12 12 13 13 13 13 12 12 13 14 14 12 10 12 13 14 14 16 18 15 17 20 16 16 18 27 31 36 37 43 40 33 29 28 30 32 37 90 100 100 100 100
12 11 11 11 13 13 12 13 13 12 12 15 14 12 10 10 13 14 14 16 17 16 16 19 18 18 19 21 27 33 39 41 40 40 36 30 29 30 32 37 89 100 100 100
9 9 9 9 9 11 11 11 12 12 12 13 15 12 10 10 11 13 14 14 17 18 16 17 17 15 17 20 22 29 37 44 42 43 43 38 31 30 31 32 40 76 100 100
8 8 8 8 8 9 10 10 12 13 12 12 15 14 11 10 10 12 14 14 15 18 18 15 17 16 15 16 22 28 32 44 48 45 49 46 41 36 32 30 31 49 71 96
10 9 8 8 7 8 9 10 11 12 13 12 14 15 12 11 11 12 13 14 14 16 18 18 17 17 16 15 16 24 32 38 49 50 46 48 46 43 37 33 32 31 37 64
11 10 10 9 7 8 9 10 11 12 12 12 12 15 14 11 12 12 13 13 14 14 17 18 19 17 16 15 15 15 23 38 47 52 49 48 46 44 42 40 34 32 31 35
10 10 9 8 7 8 8 9 10 11 12 12 12 12 15 12 12 12 12 13 13 14 15 18 19 19 17 15 14 14 14 18 31 45 55 48 49 43 39 39 38 34 32 33
8 8 7 7 7 8 8 9 9 10 11 12 12 12 12 14 12 12 12 12 12 14 15 17 20 20 19 16 14 13 12 13 17 26 41 55 52 50 44 39 36 34 33 32
8 8 8 8 8 8 9 9 9 10 10 11 11 11 11 12 14 11 12 12 12 12 14 16 18 21 22 20 18 15 13 13 14 18 30 37 55 59 54 48 43 37 34 33
9 9 9 9 9 9 10 9 10 10 10 10 11 10 10 10 11 14 11 11 12 12 11 13 15 17 21 22 22 21 18 16 14 14 16 26 35 51 70 63 57 50 45 41
9 9 9 9 8 9 9 9 8 9 9 9 9 10 10 10 10 10 13 13 10 11 12 11 12 13 15 18 21 22 22 20 17 15 14 14 17 27 38 55 72 68 64 60
9 8 8 8 9 8 8 8 8 8 8 8 8 8 9 10 10 9 10 11 14 13 10 10 11 11 12 13 14 18 21 21 20 19 17 15 15 15 16 20 28 39 57 72
9 8 8 8 8 8 8 8 9 8 8 8 8 8 8 9 9 9 8 8 9 11 13 12 10 9 9 12 12 12 14 17 19 20 20 19 17 16 16 16 17 20 22 28
10 8 7 8 8 8 8 9 9 10 10 9 9 9 9 9 9 9 8 8 8 8 8 10 12 12 11 10 9 9 11 12 14 16 19 20 19 18 17 17 17 17 19 23
10 9 8 7 7 7 8 10 10 10 10 10 9 9 8 8 8 9 9 9 9 8 7 7 7 8 10 11 12 11 10 9 9 11 12 13 14 16 18 19 18 18 18 18
9 10 9 9 8 8 7 7 7 9 9 9 9 8 8 8 7 7 7 7 7 8 8 8 8 7 7 8 8 9 10 10 11 10 10 11 12 13 14 15 16 17 18 19
8 8 8 9 9 8 8 8 7 7 6 7 7 8 8 7 7 6 6 6 6 6 6 6 6 6 7 8 8 8 8 8 8 9 10 11 10 10 10 11 12 13 14 15
7 7 7 7 7 7 7 7 7 7 7 6 5 6 6 7 6 6 6 6 6 6 6 5 5 5 5 5 5 6 6 7 8 8 9 9 9 10 11 11 11 11 11 11

GFSNGP_250_rhum_294.txt.gz
RH
9 8 7 8 7 7 6 6 5 5 5 4 5 5 4 5 4 4 4 5 7 8 7 6 6 6 6 6 8 12 15 18 19 21 17 17 17 18 19 28 98 97 96 51
8 7 7 7 6 6 6 6 6 6 5 5 6 5 5 5 5 5 4 5 7 9 8 6 7 6 6 6 8 10 13 16 18 22 21 17 17 18 19 20 28 100 100 98
8 6 7 8 6 6 6 6 6 6 5 6 6 5 6 6 5 5 5 5 7 10 10 8 7 8 8 8 9 11 14 16 18 20 24 21 18 19 19 19 21 32 100 100
8 6 7 6 6 6 6 6 6 6 6 6 6 6 6 6 6 6 6 7 9 11 11 9 8 8 9 9 9 10 12 16 18 19 22 23 21 18 19 19 19 21 43 100
7 6 6 8 6 7 7 7 8 7 7 7 7 6 7 7 7 7 7 8 10 13 12 10 9 9 9 10 9 11 12 13 17 18 19 20 22 20 20 20 19 20 21 54
7 7 8 9 8 10 10 10 10 9 9 9 8 7 7 7 8 8 8 9 11 14 14 12 10 11 11 10 10 11 12 14 16 18 19 20 22 21 20 20 20 22 22 23
8 9 11 10 10 12 12 11 11 11 10 10 10 9 8 8 9 9 10 11 13 15 15 13 11 11 11 11 12 12 12 13 17 20 22 23 23 22 21 21 20 24 20 21
10 11 12 10 11 12 12 12 12 12 11 10 11 11 10 9 9 10 11 12 15 17 16 14 12 12 11 11 12 13 14 15 16 18 23 27 26 23 22 21 21 24 20 20
11 12 12 12 11 12 12 12 13 12 12 11 12 13 14 10 10 12 12 14 15 19 18 17 14 13 13 12 12 12 15 17 20 24 26 29 32 28 24 25 27 25 24 24
12 11 12 11 11 12 14 13 14 14 14 13 13 13 16 15 12 12 13 15 17 21 22 20 17 15 14 14 13 12 15 24 26 25 30 33 36 37 33 29 30 29 27 28
10 10 10 10 11 11 13 13 13 14 14 14 14 14 16 18 14 13 14 16 18 19 24 23 19 17 16 19 21 19 16 22 32 36 32 32 36 43 41 38 38 35 30 31
7 8 8 8 8 9 10 11 12 12 14 14 14 14 15 18 18 16 15 16 17 19 20 22 22 19 19 21 24 27 27 25 26 37 39 39 41 38 39 40 38 41 38 32
7 8 8 8 8 8 8 9 10 10 12 13 14 14 13 17 18 16 15 15 17 17 19 22 23 22 20 22 30 30 36 43 30 30 35 39 43 40 37 43 42 41 40 36
9 10 10 10 10 9 9 8 8 9 10 12 12 14 13 14 16 16 14 15 15 17 19 20 22 23 24 24 28 30 30 49 50 46 45 40 43 44 46 42 47 45 42 38
10 10 10 11 12 12 11 9 8 9 9 10 12 12 13 14 15 15 14 12 14 16 16 18 18 22 22 23 26 23 26 32 40 58 58 49 56 58 50 49 48 49 48 43
9 9 9 10 11 11 10 8 8 8 9 9 11 11 11 12 14 14 14 13 12 12 14 17 17 21 24 21 22 21 21 24 28 37 51 49 58 58 54 46 43 45 50 54
8 8 8 8 8 8 8 8 8 8 9 10 10 11 12 11 12 14 13 12 13 12 13 14 16 18 20 21 20 20 18 18 21 25 29 38 43 51 62 55 45 40 40 45
9 9 8 8 8 8 8 8 8 8 9 9 10 11 12 12 12 12 14 12 11 12 12 12 13 15 15 19 22 20 18 16 16 16 19 22 32 35 47 60 59 57 52 49
9 9 9 9 9 9 9 9 9 9 9 9 9 9 11 11 11 11 13 13 11 11 12 12 13 13 14 15 18 21 21 18 15 14 16 17 20 27 30 44 61 59 58 56
9 9 9 8 8 9 9 9 9 9 9 9 10 9 9 10 10 10 11 13 13 10 10 11 12 13 13 13 15 18 22 22 19 16 14 15 15 16 23 31 42 64 63 57
9 10 9 8 8 8 8 8 8 8 8 9 9 9 9 9 9 10 9 10 12 13 11 10 10 11 12 13 13 14 17 20 21 21 18 16 14 15 16 20 32 44 62 66
9 9 9 8 7 7 8 8 8 8 8 8 8 8 8 8 8 8 9 9 9 10 12 11 10 9 10 12 12 13 14 15 18 20 20 19 18 16 15 16 17 23 30 45
10 9 9 8 7 7 8 8 8 8 8 8 8 8 8 8 8 8 7 8 8 8 8 10 11 10 9 10 10 11 12 13 14 16 18 19 20 20 19 17 16 17 17 20
9 9 9 9 8 7 7 7 8 8 9 9 9 9 10 9 8 8 8 8 8 8 8 8 8 9 10 11 9 9 10 11 12 12 14 15 17 19 20 21 21 19 17 17
8 8 8 9 9 8 8 7 7 7 8 8 8 8 9 9 9 9 9 8 8 8 8 8 7 7 8 9 10 10 9 9 9 10 12 12 13 14 15 16 18 21 22 20
7 7 7 7 7 7 7 8 8 8 7 6 6 7 7 7 7 7 7 8 8 7 7 8 8 8 8 8 8 8 10 10 10 10 9 9 10 11 12 13 13 14 16 18
7 7 7 7 7 7 7 6 6 7 7 7 6 6 6 6 7 7 6 7 7 7 6 6 6 6 7 7 8 8 8 8 8 9 10 10 10 10 10 10 10 11 12 12

GFSNGP_250_rhum_300.txt.gz
RH
6 6 6 6 8 7 5 5 4 5 5 5 4 5 5 5 5 5 5 4 4 5 5 5 5 4 4 4 4 4 5 6 8 10 12 13 13 12 13 14 15 21 27 30
5 7 7 8 10 7 7 6 6 5 5 5 5 5 5 5 5 5 5 4 4 3 4 4 5 5 5 4 4 4 4 5 6 7 10 13 13 14 15 15 15 14 17 27
6 6 6 9 7 7 7 7 7 6 5 6 5 5 5 5 5 5 5 4 4 4 4 3 4 4 5 5 5 5 4 4 5 6 7 9 12 13 15 16 16 15 15 18
8 8 8 10 8 8 8 7 7 7 6 6 5 5 5 5 5 5 4 5 4 4 4 4 4 4 4 4 6 6 5 5 5 5 6 7 8 10 14 16 17 16 17 17
8 7 9 9 9 9 8 8 7 8 9 8 7 6 6 6 5 5 5 5 5 5 5 4 4 4 4 4 4 6 6 6 5 5 5 6 7 8 11 15 18 18 20 20
7 8 9 8 9 9 10 9 8 9 8 8 8 8 8 8 7 6 6 5 5 5 5 5 5 5 5 5 4 4 6 6 6 6 6 6 6 8 10 13 17 20 20 20
7 8 9 9 9 10 10 9 9 10 9 9 9 9 9 8 8 8 7 6 6 5 6 6 6 6 6 5 5 5 6 7 7 6 6 6 6 7 9 12 17 23 25 22
8 8 8 8 10 10 10 10 11 10 9 10 10 10 9 10 10 10 9 7 7 6 6 6 7 7 6 6 6 6 6 7 8 8 7 7 7 7 7 9 14 20 22 25
6 6 6 7 8 9 10 10 10 10 10 10 10 10 10 11 10 10 10 9 8 7 7 8 8 8 7 7 8 8 8 10 11 10 9 8 8 8 8 10 12 14 19 26
6 6 6 6 6 6 7 7 8 10 10 10 10 10 11 11 11 10 10 10 9 8 8 9 9 9 9 9 10 10 11 12 13 12 12 10 9 9 10 10 9 12 17 24
6 6 6 6 6 6 6 7 7 8 9 9 10 11 11 12 12 11 11 11 11 9 9 10 10 10 11 12 13 13 15 16 15 15 14 13 11 10 10 10 10 14 19 22
6 6 6 6 6 6 6 7 7 7 7 8 9 10 12 12 12 12 12 12 12 10 10 10 11 12 13 15 16 17 18 17 16 15 13 12 12 10 10 10 11 12 15 17
6 5 5 6 7 8 8 9 9 9 8 8 8 8 10 12 13 13 13 12 13 12 12 11 12 13 14 17 18 19 20 18 15 14 13 11 11 11 12 10 11 13 14 18
5 5 6 7 9 9 9 10 10 10 10 10 8 8 8 10 13 13 14 13 13 14 12 12 12 13 14 17 20 21 20 18 16 13 13 14 14 13 13 12 11 13 18 21
4 5 6 8 8 8 8 9 9 9 10 11 10 8 8 8 11 12 13 13 14 15 14 13 13 13 15 17 22 22 20 18 16 15 14 15 15 14 13 13 12 14 16 23
5 6 8 9 9 8 8 8 7 8 9 10 10 9 8 8 9 11 12 13 14 15 16 14 14 13 15 18 21 22 21 20 18 16 17 16 17 16 16 15 16 19 21 23
6 8 9 9 9 9 8 8 8 7 7 8 9 10 8 8 8 9 11 12 13 14 16 17 14 14 15 18 19 20 21 22 20 17 17 17 17 18 22 23 19 19 20 34
8 8 8 8 9 9 9 8 8 8 8 7 7 7 7 7 8 8 9 11 12 13 14 16 17 14 14 15 17 18 19 20 22 23 22 22 22 21 20 19 18 19 20 20
8 9 9 9 9 10 9 8 7 7 8 8 8 7 7 7 8 8 8 10 11 12 12 14 16 17 15 14 15 18 19 18 21 27 32 32 35 37 29 26 24 21 19 20
8 8 9 8 9 9 8 8 7 7 7 7 8 8 8 8 8 8 8 9 10 11 11 12 14 15 16 16 14 15 18 18 19 22 32 35 38 46 45 41 32 26 29 26
7 8 8 9 8 8 8 7 7 7 6 7 7 7 7 8 8 8 8 8 9 10 10 11 12 14 14 15 14 13 13 16 17 21 26 32 37 42 51 53 56 59 46 31
7 7 7 8 8 9 8 7 7 7 7 7 6 6 7 6 7 8 8 8 8 9 10 10 10 11 13 14 13 13 12 13 15 17 21 26 30 35 42 54 55 56 56 56
6 6 6 6 7 7 8 8 7 6 6 7 7 7 7 7 6 6 7 8 8 8 8 9 9 10 10 13 12 11 11 11 12 14 16 20 26 30 35 45 49 49 56 56
6 6 7 7 7 6 6 7 7 7 7 6 7 8 8 8 7 7 6 6 7 7 8 8 8 8 7 9 12 11 11 10 10 11 13 15 17 24 29 32 40 52 41 48
7 7 7 7 6 6 6 6 6 6 7 7 6 6 6 7 7 7 8 7 6 6 6 7 7 7 6 8 8 9 11 10 9 10 10 11 14 16 18 22 24 29 36 42
7 7 7 6 6 6 6 6 6 6 6 6 6 6 6 6 6 6 7 7 7 7 7 6 6 6 6 7 7 7 8 9 10 9 9 10 10 12 14 15 17 19 21 25
7 6 6 6 6 6 6 6 6 6 6 5 5 5 5 5 5 5 5 6 6 6 6 7 6 7 6 6 6 6 6 6 8 9 9 8 9 9 10 12 14 14 16 17

GFSNGP_250_rhum_303.txt.gz
RH
9 6 6 6 7 7 6 5 5 6 6 6 4 5 6 5 4 4 4 4 4 4 4 4 4 6 6 6 5 5 6 6 7 11 13 13 13 12 11 16 24 27 26 30
6 7 6 6 8 6 6 7 6 6 6 6 5 5 6 5 5 4 4 4 4 4 4 3 4 4 5 6 6 6 5 5 5 6 8 12 13 13 12 12 12 22 27 26
6 7 6 6 6 6 6 7 7 7 7 7 6 6 6 6 6 5 4 4 4 4 4 4 3 3 4 4 5 6 6 5 5 5 5 7 9 13 14 13 12 13 15 25
7 7 6 7 7 7 8 8 8 7 7 8 8 7 6 6 6 5 5 5 5 5 4 4 4 4 3 4 4 4 5 6 5 5 5 5 6 7 11 14 13 14 15 15
7 6 6 8 8 7 8 9 7 8 9 10 9 7 7 7 7 6 6 5 5 5 4 4 4 4 4 4 4 4 4 5 6 6 5 5 5 5 7 9 12 15 16 16
6 6 8 8 7 7 8 8 7 8 8 9 9 9 9 8 8 7 7 6 6 5 5 5 5 4 4 4 4 4 4 4 5 6 6 6 5 5 5 6 8 10 14 16
7 7 8 7 6 6 6 7 6 7 8 9 10 9 10 10 9 8 9 8 7 6 6 5 5 5 5 5 5 4 4 4 4 4 5 6 5 5 5 5 6 7 8 12
8 7 7 6 6 6 6 6 6 6 6 8 9 10 10 10 10 10 9 10 8 8 7 6 6 5 5 5 5 5 5 4 4 4 5 6 6 5 5 5 5 6 7 9
7 6 6 6 6 6 6 6 6 6 6 6 8 9 11 10 10 10 11 10 9 9 8 7 7 6 6 6 6 6 5 5 5 5 5 6 7 7 6 6 6 6 7 8
6 6 6 7 7 7 6 6 6 6 6 6 6 8 10 10 10 10 11 10 10 10 10 8 8 7 6 7 7 7 6 6 6 6 6 6 7 8 8 7 6 6 6 7
6 6 6 6 6 6 6 6 6 6 6 6 7 7 7 8 10 11 11 11 11 10 10 10 9 8 8 8 8 8 8 7 7 7 7 7 8 9 9 7 6 6 6 7
6 5 5 5 5 5 6 7 8 9 9 8 8 7 7 7 9 10 11 10 11 11 11 11 10 9 8 9 9 9 9 9 9 9 10 10 11 12 11 9 8 7 7 7
5 5 5 5 5 5 6 7 9 10 10 9 9 9 7 7 8 9 11 10 11 12 12 12 10 9 9 10 10 11 12 12 11 11 12 12 14 14 13 11 9 8 8 8
6 5 5 5 5 5 8 8 8 9 8 9 9 10 10 8 7 8 9 10 11 12 12 12 12 10 10 11 12 13 14 14 14 14 15 16 17 16 16 13 10 9 9 9
6 6 6 6 6 8 9 9 8 8 8 8 8 9 9 10 8 8 8 10 11 13 13 13 13 11 11 12 14 14 15 16 17 17 17 18 19 17 17 14 11 9 10 10
6 6 6 7 8 8 8 8 8 8 8 7 7 8 9 10 10 8 8 8 10 12 13 13 14 12 11 12 14 15 16 18 19 20 20 19 19 18 18 17 15 12 13 12
6 6 7 8 8 8 8 8 8 8 8 8 7 7 7 8 10 9 7 8 8 10 13 13 14 14 12 12 14 16 17 18 20 22 21 20 20 18 17 17 16 15 13 15
6 7 7 8 8 8 8 8 9 8 8 8 8 8 7 7 8 8 7 7 8 9 11 12 13 14 14 12 14 16 18 19 20 23 23 20 18 18 18 18 17 15 17 15
6 6 7 8 8 8 8 8 8 7 7 7 7 8 8 7 7 7 7 7 7 8 9 11 12 13 14 13 13 16 18 19 21 22 23 21 19 18 19 20 23 22 20 22
6 6 6 7 8 8 8 8 7 6 6 6 6 7 7 8 7 7 7 7 7 8 8 10 11 12 14 14 13 13 16 19 20 23 24 22 19 19 19 21 24 22 20 21
6 6 6 6 6 7 8 8 7 6 6 6 6 6 6 7 8 7 7 7 7 7 8 8 10 11 12 14 14 13 12 16 19 21 23 23 21 20 19 20 21 20 28 22
7 6 6 6 6 6 6 7 8 7 6 6 6 7 6 6 6 7 7 7 7 7 7 8 9 10 10 11 13 14 13 12 15 18 20 22 22 22 20 20 20 19 20 23
6 6 6 6 6 6 6 6 6 7 7 7 6 6 7 7 6 6 6 7 7 7 7 8 8 8 8 9 10 13 14 13 12 13 15 18 23 23 22 20 19 22 21 21
6 6 7 6 6 6 6 6 6 6 6 6 7 6 6 7 7 8 7 6 6 6 7 7 7 8 7 8 9 9 12 12 12 12 12 13 17 22 24 23 22 22 24 25
6 6 6 6 6 6 6 6 6 6 6 6 6 6 6 6 5 7 8 7 7 6 6 6 6 6 6 8 7 7 8 11 11 11 11 11 13 15 22 26 25 24 24 25
6 6 6 6 6 5 5 5 5 5 5 6 6 5 5 6 6 5 6 6 7 8 7 6 6 5 6 6 6 6 6 8 10 10 10 10 11 12 14 19 27 26 25 25
8 6 6 5 6 6 6 6 6 5 5 5 5 5 5 5 5 5 5 5 5 6 7 7 7 6 6 5 6 6 5 6 7 9 10 9 9 10 11 12 15 22 25 24

GFSNGP_250_rhum_306.txt.gz
RH
29 27 22 13 8 7 6 6 6 6 6 7 6 6 6 6 6 7 7 6 5 4 5 4 4 4 4 4 4 4 5 6 6 6 6 9 12 13 13 10 10 12 14 20
27 20 13 7 7 7 6 6 7 6 7 7 7 7 7 7 6 6 6 6 6 5 5 5 4 4 4 4 4 4 4 5 6 6 6 6 8 11 13 13 11 9 11 12
17 12 7 6 8 8 7 6 6 7 7 6 7 7 6 6 6 6 6 6 6 6 5 5 4 4 4 4 4 4 4 4 4 6 6 6 6 7 10 12 13 12 10 11
11 7 6 7 8 8 7 7 7 7 6 6 6 6 7 7 6 6 7 6 6 6 6 5 5 4 4 4 4 4 4 4 4 4 5 6 5 5 6 8 10 12 13 12
7 6 7 8 7 7 7 7 7 6 6 6 6 6 6 7 7 7 7 7 6 7 6 6 5 4 4 4 4 4 4 4 4 4 4 5 6 6 5 5 6 8 10 12
7 7 7 8 7 7 7 7 6 6 5 5 6 6 6 7 8 8 8 7 7 8 7 6 6 5 4 4 4 4 4 4 4 4 3 4 5 6 6 5 5 6 7 8
8 7 8 8 7 6 6 5 5 6 6 6 6 6 6 6 7 8 9 9 8 8 8 7 7 6 5 4 4 4 4 4 4 4 4 4 4 5 5 5 5 5 5 6
8 7 7 7 6 6 6 6 6 6 6 6 6 6 6 6 6 8 9 8 9 9 8 8 8 7 6 5 5 4 4 4 4 4 4 4 4 4 5 5 6 5 5 5
7 7 6 6 6 6 6 6 6 6 6 6 6 6 6 6 6 7 8 9 9 9 9 9 9 8 8 7 6 5 5 5 4 4 4 4 4 4 4 5 5 5 5 4
6 6 6 6 6 5 5 5 5 5 5 5 5 5 5 5 6 6 7 8 10 9 9 10 9 9 8 8 6 6 5 5 5 5 5 5 4 4 4 4 5 6 6 5
6 6 5 5 5 5 5 5 5 5 5 5 6 7 6 7 6 6 6 8 9 10 9 10 10 9 9 9 8 7 6 6 6 6 6 5 5 5 4 4 5 6 6 6
6 5 5 5 5 6 6 6 5 5 5 6 7 8 8 8 8 7 6 8 9 10 9 10 11 10 10 10 9 8 7 7 7 7 6 6 6 5 5 5 5 6 7 6
6 5 5 5 5 5 5 6 6 5 6 8 8 8 9 9 8 8 8 7 8 9 9 10 11 11 11 11 10 8 8 8 8 8 7 7 7 7 7 6 6 7 8 7
7 6 6 6 5 5 6 6 6 7 8 8 8 8 8 8 8 9 10 8 8 8 9 10 11 11 11 12 10 9 9 10 9 9 9 10 9 9 8 8 7 8 9 8
7 7 6 6 6 6 6 7 8 8 8 8 8 8 8 7 7 8 9 9 8 8 9 10 11 11 12 12 10 11 11 11 11 12 12 12 13 12 11 10 10 11 10 10
8 7 6 6 6 7 7 8 8 8 8 8 8 8 8 7 7 7 8 9 8 7 8 10 11 12 12 12 11 11 12 12 13 13 14 15 15 16 14 13 13 12 12 10
8 7 6 6 6 7 7 8 8 8 8 8 8 8 8 8 7 7 8 8 8 7 7 9 10 12 12 13 12 11 13 13 15 15 16 17 17 18 16 16 14 14 13 12
7 7 6 6 6 7 8 8 8 8 7 8 7 7 7 7 7 7 7 8 8 7 7 8 10 11 12 12 12 11 13 14 16 18 18 18 19 20 18 17 17 17 16 13
6 7 6 6 6 6 6 7 8 8 7 7 6 6 6 6 7 8 7 6 6 6 6 7 9 11 11 12 13 12 12 15 16 18 20 20 22 22 22 22 21 22 21 19
6 6 6 6 6 6 6 6 6 7 7 7 6 7 6 6 6 7 7 7 6 6 6 7 8 10 10 11 13 13 12 13 16 18 20 21 23 23 24 26 23 24 29 24
6 6 6 6 6 6 6 6 6 6 7 7 6 6 7 6 6 6 7 7 6 6 6 7 8 8 9 11 11 13 12 12 14 17 19 22 23 25 26 26 25 24 31 30
6 6 6 6 6 6 6 6 6 6 6 6 6 6 6 6 7 6 6 6 7 7 6 7 7 7 8 10 10 12 13 12 13 14 18 20 23 25 26 26 25 27 25 32
6 6 6 6 6 6 6 6 6 6 6 6 6 6 6 6 7 7 7 6 6 6 7 7 7 7 7 9 9 10 12 13 12 12 14 17 20 22 25 26 24 22 22 25
6 5 5 6 6 6 5 6 6 6 6 6 6 6 6 6 6 7 7 7 7 5 6 6 6 6 7 9 9 9 10 12 13 11 11 13 16 20 22 25 27 25 23 22
7 6 6 6 6 7 7 7 6 6 6 6 5 6 5 5 5 6 6 6 7 7 6 6 6 6 6 8 8 8 9 9 11 13 12 11 12 15 19 22 24 24 24 27
10 9 8 7 7 8 8 8 8 8 7 6 5 5 5 5 5 5 6 6 5 6 7 7 6 5 5 6 7 7 7 8 8 10 12 12 11 11 14 17 20 22 22 22
11 11 10 9 8 7 7 7 8 8 8 7 7 6 5 5 5 5 5 5 5 5 5 6 6 7 6 5 6 6 6 7 7 7 9 11 12 12 10 12 14 17 20 21